Ely, MN

5:08 PM CST on November 20, 2017 (GMT -0600)
Ely Municipal

Weather History for KELO - November, 2013

Change the Weather History Date:

Wednesday, November 20, 2013

  Actual Average Record
Temperature  
Mean Temperature 38 °F -  
Max Temperature 42 °F 30 °F 46 °F (2003)
Min Temperature 32 °F 18 °F -13 °F (2014)
Degree Days  
Heating Degree Days 28    
Moisture  
Dew Point 23 °F    
Average Humidity 56    
Maximum Humidity 80    
Minimum Humidity 42    
Precipitation  
Precipitation 0.00 in - - ()
Sea Level Pressure  
Sea Level Pressure 29.87 in    
Wind  
Wind Speed 10 mph (South)    
Max Wind Speed 16 mph    
Max Gust Speed 26 mph    
Visibility 10 miles    
Events      
Averages and records for this station are not official NWS values.
T = Trace of Precipitation, MM = Missing Value Source: NWS Daily Summary

Daily Weather History Graph

Daily Weather History Graph

Search for Another Location

Airport or City:

Trip Planner

Search our weather history database for the weather conditions in past years. The results will help you decide how hot, cold, wet, or windy it might be!

Date:

Astronomy

Nov. 20, 2013 Rise Set
Actual Time 7:20 AM CST 4:24 PM CST
Civil Twilight 6:46 AM CST 4:59 PM CST
Nautical Twilight 6:08 AM CST 5:37 PM CST
Astronomical Twilight 5:31 AM CST 6:13 PM CST
Moon 7:07 PM CST 9:46 AM CST
Length of Visible Light 10h 12m
Length of Day
9h 03m
Waning Gibbous, 91% of the Moon is Illuminated
Nov 20
Waning Gibbous
Nov 25
Last Quarter
Dec 2
New
Dec 9
First Quarter
Dec 17
Full

Hourly Weather History & Observations

Time (CST) Temp. Windchill Dew Point Humidity Pressure Visibility Wind Dir Wind Speed Gust Speed Precip Events Conditions
12:12 AM 37.4 °F 28.2 °F 21.2 °F 52% 29.80 in 10.0 mi South 16.1 mph 26.5 mph N/A   Clear
12:33 AM 35.6 °F 27.1 °F 23.0 °F 60% 29.80 in 10.0 mi South 12.7 mph 20.7 mph N/A   Clear
12:52 AM 35.6 °F 25.9 °F 23.0 °F 60% 29.79 in 10.0 mi South 16.1 mph - N/A   Clear
1:13 AM 37.4 °F 29.8 °F 23.0 °F 56% 29.79 in 10.0 mi South 11.5 mph 21.9 mph N/A   Clear
1:32 AM 37.4 °F 29.8 °F 23.0 °F 56% 29.79 in 10.0 mi South 11.5 mph 17.3 mph N/A   Clear
1:53 AM 37.4 °F 30.3 °F 23.0 °F 56% 29.79 in 10.0 mi South 10.4 mph 19.6 mph N/A   Clear
2:13 AM 37.4 °F 29.3 °F 23.0 °F 56% 29.79 in 10.0 mi South 12.7 mph 23.0 mph N/A   Clear
2:32 AM 39.2 °F 31.2 °F 23.0 °F 52% 29.79 in 10.0 mi South 13.8 mph 18.4 mph N/A   Clear
2:53 AM 39.2 °F 32.0 °F 23.0 °F 52% 29.79 in 10.0 mi South 11.5 mph 21.9 mph N/A   Clear
3:13 AM 39.2 °F 31.6 °F 23.0 °F 52% 29.79 in 10.0 mi South 12.7 mph 19.6 mph N/A   Clear
3:32 AM 39.2 °F 32.0 °F 23.0 °F 52% 29.79 in 10.0 mi South 11.5 mph 23.0 mph N/A   Clear
3:53 AM 39.2 °F 32.0 °F 23.0 °F 52% 29.79 in 10.0 mi South 11.5 mph 17.3 mph N/A   Clear
4:13 AM 39.2 °F 31.2 °F 23.0 °F 52% 29.79 in 10.0 mi South 13.8 mph 17.3 mph N/A   Clear
4:32 AM 39.2 °F 32.0 °F 23.0 °F 52% 29.79 in 10.0 mi South 11.5 mph 20.7 mph N/A   Clear
4:53 AM 37.4 °F 31.4 °F 23.0 °F 56% 29.80 in 10.0 mi South 8.1 mph - N/A   Clear
5:13 AM 37.4 °F 30.8 °F 23.0 °F 56% 29.80 in 10.0 mi South 9.2 mph - N/A   Clear
5:33 AM 37.4 °F 32.1 °F 23.0 °F 56% 29.80 in 10.0 mi South 6.9 mph - N/A   Clear
5:53 AM 37.4 °F 31.4 °F 23.0 °F 56% 29.80 in 10.0 mi South 8.1 mph - N/A   Clear
6:12 AM 37.4 °F 32.1 °F 21.2 °F 52% 29.81 in 10.0 mi South 6.9 mph - N/A   Clear
6:33 AM 37.4 °F 31.4 °F 21.2 °F 52% 29.81 in 10.0 mi South 8.1 mph - N/A   Clear
6:53 AM 37.4 °F 31.4 °F 21.2 °F 52% 29.82 in 10.0 mi South 8.1 mph - N/A   Clear
7:12 AM 37.4 °F 31.4 °F 21.2 °F 52% 29.82 in 10.0 mi South 8.1 mph - N/A   Clear
7:33 AM 37.4 °F 30.8 °F 21.2 °F 52% 29.82 in 10.0 mi South 9.2 mph - N/A   Clear
7:53 AM 37.4 °F 31.4 °F 21.2 °F 52% 29.83 in 10.0 mi SSW 8.1 mph - N/A   Clear
8:12 AM 37.4 °F 32.1 °F 21.2 °F 52% 29.84 in 10.0 mi SSW 6.9 mph - N/A   Clear
8:33 AM 39.2 °F 34.2 °F 21.2 °F 49% 29.85 in 10.0 mi South 6.9 mph - N/A   Clear
8:53 AM 39.2 °F 35.0 °F 21.2 °F 49% 29.85 in 10.0 mi South 5.8 mph - N/A   Clear
9:12 AM 39.2 °F 33.6 °F 21.2 °F 49% 29.86 in 10.0 mi South 8.1 mph - N/A   Clear
9:33 AM 39.2 °F 33.6 °F 21.2 °F 49% 29.86 in 10.0 mi South 8.1 mph - N/A   Mostly Cloudy
9:53 AM 39.2 °F 34.2 °F 21.2 °F 49% 29.87 in 10.0 mi South 6.9 mph - N/A   Mostly Cloudy
10:12 AM 39.2 °F 33.0 °F 21.2 °F 49% 29.87 in 10.0 mi South 9.2 mph - N/A   Scattered Clouds
10:33 AM 41.0 °F 36.4 °F 21.2 °F 45% 29.87 in 10.0 mi South 6.9 mph - N/A   Clear
10:53 AM 41.0 °F 37.1 °F 21.2 °F 45% 29.88 in 10.0 mi South 5.8 mph - N/A   Clear
11:12 AM 42.8 °F 37.0 °F 21.2 °F 42% 29.87 in 10.0 mi South 10.4 mph - N/A   Scattered Clouds
11:33 AM 42.8 °F 38.6 °F 21.2 °F 42% 29.87 in 10.0 mi SSW 6.9 mph 10.4 mph N/A   Mostly Cloudy
11:53 AM 42.8 °F 38.0 °F 21.2 °F 42% 29.87 in 10.0 mi South 8.1 mph 16.1 mph N/A   Scattered Clouds
12:13 PM 42.8 °F 38.0 °F 21.2 °F 42% 29.87 in 10.0 mi South 8.1 mph - N/A   Scattered Clouds
12:33 PM 42.8 °F 37.0 °F 21.2 °F 42% 29.87 in 10.0 mi SSW 10.4 mph - N/A   Mostly Cloudy
12:53 PM 42.8 °F 38.0 °F 21.2 °F 42% 29.87 in 10.0 mi South 8.1 mph - N/A   Mostly Cloudy
1:12 PM 42.8 °F 38.6 °F 21.2 °F 42% 29.87 in 10.0 mi South 6.9 mph - N/A   Overcast
1:33 PM 42.8 °F 38.0 °F 21.2 °F 42% 29.87 in 10.0 mi South 8.1 mph - N/A   Overcast
1:53 PM 42.8 °F 38.0 °F 21.2 °F 42% 29.87 in 10.0 mi South 8.1 mph - N/A   Overcast
2:12 PM 42.8 °F 39.3 °F 21.2 °F 42% 29.87 in 10.0 mi South 5.8 mph - N/A   Overcast
2:33 PM 42.8 °F 38.0 °F 21.2 °F 42% 29.88 in 10.0 mi South 8.1 mph - N/A   Overcast
2:53 PM 42.8 °F 39.3 °F 21.2 °F 42% 29.88 in 10.0 mi South 5.8 mph - N/A   Overcast
3:12 PM 41.0 °F 35.8 °F 21.2 °F 45% 29.88 in 10.0 mi South 8.1 mph - N/A   Overcast
3:33 PM 41.0 °F 37.1 °F 21.2 °F 45% 29.89 in 10.0 mi South 5.8 mph - N/A   Overcast
3:53 PM 39.2 °F 33.0 °F 23.0 °F 52% 29.89 in 10.0 mi SSE 9.2 mph - N/A   Overcast
4:12 PM 39.2 °F 33.6 °F 24.8 °F 56% 29.90 in 10.0 mi SSE 8.1 mph - N/A   Overcast
4:33 PM 39.2 °F 35.0 °F 26.6 °F 61% 29.90 in 10.0 mi SSE 5.8 mph - N/A   Overcast
4:53 PM 37.4 °F 33.8 °F 26.6 °F 65% 29.91 in 10.0 mi SSE 4.6 mph - N/A   Overcast
5:13 PM 37.4 °F 32.8 °F 26.6 °F 65% 29.92 in 10.0 mi SSE 5.8 mph - N/A   Overcast
5:33 PM 37.4 °F 33.8 °F 26.6 °F 65% 29.92 in 10.0 mi SSE 4.6 mph - N/A   Overcast
5:53 PM 37.4 °F 33.8 °F 26.6 °F 65% 29.93 in 10.0 mi SSE 4.6 mph - N/A   Overcast
6:13 PM 37.4 °F 32.8 °F 26.6 °F 65% 29.93 in 10.0 mi SSE 5.8 mph - N/A   Overcast
6:33 PM 37.4 °F 32.8 °F 26.6 °F 65% 29.94 in 10.0 mi SSE 5.8 mph - N/A   Overcast
6:53 PM 35.6 °F 31.7 °F 26.6 °F 70% 29.94 in 10.0 mi SSE 4.6 mph - N/A   Overcast
7:12 PM 35.6 °F 32.8 °F 26.6 °F 70% 29.94 in 10.0 mi SSE 3.5 mph - N/A   Overcast
7:33 PM 35.6 °F 31.7 °F 26.6 °F 70% 29.94 in 10.0 mi SSE 4.6 mph - N/A   Overcast
7:53 PM 35.6 °F 31.7 °F 26.6 °F 70% 29.95 in 10.0 mi SSE 4.6 mph - N/A   Overcast
8:12 PM 35.6 °F 31.7 °F 26.6 °F 70% 29.95 in 10.0 mi South 4.6 mph - N/A   Overcast
8:33 PM 37.4 °F 34.9 °F 26.6 °F 65% 29.95 in 10.0 mi South 3.5 mph - N/A   Overcast
8:53 PM 37.4 °F - 26.6 °F 65% 29.96 in 10.0 mi Calm Calm - N/A   Overcast
9:12 PM 37.4 °F 33.8 °F 26.6 °F 65% 29.95 in 10.0 mi SSE 4.6 mph - N/A   Overcast
9:33 PM 37.4 °F 33.8 °F 26.6 °F 65% 29.96 in 10.0 mi South 4.6 mph - N/A   Overcast
9:53 PM 35.6 °F 31.7 °F 26.6 °F 70% 29.96 in 10.0 mi South 4.6 mph - N/A   Overcast
10:12 PM 35.6 °F 32.8 °F 26.6 °F 70% 29.96 in 10.0 mi South 3.5 mph - N/A   Overcast
10:33 PM 35.6 °F 31.7 °F 26.6 °F 70% 29.97 in 10.0 mi South 4.6 mph - N/A   Mostly Cloudy
10:52 PM 33.8 °F 30.8 °F 26.6 °F 75% 29.97 in 10.0 mi South 3.5 mph - N/A   Scattered Clouds
11:13 PM 33.8 °F 30.8 °F 26.6 °F 75% 29.98 in 10.0 mi South 3.5 mph - N/A   Scattered Clouds
11:33 PM 33.8 °F 30.8 °F 26.6 °F 75% 29.99 in 10.0 mi South 3.5 mph - N/A   Scattered Clouds
11:52 PM 32.0 °F - 26.6 °F 80% 29.99 in 10.0 mi Calm Calm - N/A   Clear